Location: Freemans Gardens
(41.6414°N, 83.6077°W)
Time: 03:05:23
(UTC+00:00)

YAOGAN 1 - Pass Details

Date: 29 October 2020
Orbit: 618 x 620 km, 97.9° (Epoch: 26 November)

Event Time Altitude Azimuth Distance (km) Brightness Sun altitude
Rises 23:41:49 0° 147° (SSE) 2,884 5.7 -13.5°
Reaches altitude 10° 23:44:05 10° 139° (SE) 1,983 4.8 -14.0°
Maximum altitude 23:48:06 39° 71° (ENE) 935 3.0 -14.7°
Drops below altitude 10° 23:52:08 10° 3° (N) 1,996 5.1 -15.5°
Sets 23:54:26 0° 356° (N) 2,906 6.0 -15.9°
